"Pseudo-MPEC" for C1FWHY5

Created 2026 Aug 26 0:35:06 UT using Find_Orb

Click here for an explanation of pseudo-MPECs

 
 Astrometry: 
     C1FWHY5*1C2026 08 23.32286022 43 19.229-20 20 05.53   ~8OFo 23.23GVNEOCPV00
     C1FWHY5 1C2026 08 23.32885722 43 19.092-20 19 58.08   ~8OFo       VNEOCPV00
     C1FWHY5 1C2026 08 23.33443622 43 18.955-20 19 50.63   ~8OFo 21.61GVNEOCPV00
     C1FWHY5 1C2026 08 23.34002122 43 18.804-20 19 43.32   ~8OFo 22.10GVNEOCPV00

Station data:
(V00) Kitt Peak-Bok  (N31.963125 W111.600190)  US/Arizona. Measurers T.
   Beuden, V. F. Carvajal, D. Fay, J. B. Fazekas, D. C. Fuls, A. R. Gibbs, A.
   D. Grauer, H. Gröller, J. K. Hogan, R. A. Kowalski, S. M. Larson, G. J.
   Leonard, D. Rankin, R. L. Seaman, F. C. Shelly, K. W. Wierzchoś. 2.25-m
   reflector + 4x4K mosaic CCD.

Orbital elements:  C1FWHY5
   Perihelion 2026 Oct 18.137081 +/- 46.3 TT =  3:17:23.8 (JD 2461331.637081)
Epoch 2026 Aug 23.0 TT = JDT 2461275.5   Earth MOID: 0.1497   Ma: 0.0560
M 342.475004717 +/- 19              (J2000 ecliptic)             AutoNEOCP
n   0.312182159 +/- 0.266           Peri.   34.695699 +/- 70
a   2.152107670 +/- 1.22            Node   346.986631 +/- 50
e   0.47535245 +/- 0.252            Incl.    8.645214 +/- 4.3
P   3.15716                H 24.22  G  0.15   U 11.9  SR
q 1.129098003 +/- 0.317    Q 3.175117337 +/- 80.8
From 4 observations 2026 Aug. 23 (24.7 min); mean residual 0".10
Residuals in arcseconds: 
260823 V00  .08-  .12+    260823 V00  .09+  .01+    
260823 V00  .08+  .20-    260823 V00  .09-  .06+    

Ephemerides (geocentric):
Date (UTC) HH   RA             Dec           delta  r     elong  mag " sig PA
---- --------  ------------   ------------  ------ ------ -----  --- --------
2026 08 26 01  22 42 39.317   -19 16 31.69  .26199 1.2691 169.4 22.4  33d  92
2026 08 26 02  22 42 38.626   -19 15 29.50  .26178 1.2689 169.5 22.4  33d  92
2026 08 26 03  22 42 37.932   -19 14 27.19  .26157 1.2687 169.5 22.4  33d  92
2026 08 26 04  22 42 37.236   -19 13 24.75  .26137 1.2685 169.5 22.4  33d  92
2026 08 26 05  22 42 36.538   -19 12 22.18  .26116 1.2683 169.5 22.4  33d  92
2026 08 26 06  22 42 35.838   -19 11 19.48  .26095 1.2681 169.6 22.4  33d  92
2026 08 26 07  22 42 35.135   -19 10 16.65  .26074 1.2679 169.6 22.4  33d  92
2026 08 26 08  22 42 34.430   -19 09 13.69  .26054 1.2677 169.6 22.4  33d  92
2026 08 26 09  22 42 33.723   -19 08 10.61  .26033 1.2675 169.6 22.4  33d  92
2026 08 26 10  22 42 33.013   -19 07 07.39  .26012 1.2673 169.7 22.4  33d  92
2026 08 26 11  22 42 32.301   -19 06 04.04  .25992 1.2671 169.7 22.4  33d  92
2026 08 26 12  22 42 31.586   -19 05 00.57  .25971 1.2669 169.7 22.4  33d  92
2026 08 26 13  22 42 30.870   -19 03 56.96  .25951 1.2667 169.7 22.4  33d  92
2026 08 26 14  22 42 30.151   -19 02 53.22  .25930 1.2665 169.8 22.4  33d  92
2026 08 26 15  22 42 29.430   -19 01 49.35  .25909 1.2663 169.8 22.4  33d  92
2026 08 26 16  22 42 28.706   -19 00 45.35  .25889 1.2661 169.8 22.4  33d  92
2026 08 26 17  22 42 27.980   -18 59 41.22  .25868 1.2659 169.8 22.4  33d  85
2026 08 26 18  22 42 27.252   -18 58 36.96  .25848 1.2657 169.9 22.4  33d  85
2026 08 26 19  22 42 26.522   -18 57 32.57  .25827 1.2655 169.9 22.4  33d  85
2026 08 26 20  22 42 25.789   -18 56 28.04  .25807 1.2653 169.9 22.4  33d  85
2026 08 26 21  22 42 25.055   -18 55 23.38  .25786 1.2651 169.9 22.3  33d  85
2026 08 26 22  22 42 24.318   -18 54 18.60  .25766 1.2649 169.9 22.3  33d  85
2026 08 26 23  22 42 23.578   -18 53 13.67  .25746 1.2648 170.0 22.3  33d  85
2026 08 27 00  22 42 22.837   -18 52 08.62  .25725 1.2646 170.0 22.3  33d  85
2026 08 27 01  22 42 22.093   -18 51 03.44  .25705 1.2644 170.0 22.3  33d  85
2026 08 27 02  22 42 21.347   -18 49 58.12  .25685 1.2642 170.0 22.3  33d  85
2026 08 27 03  22 42 20.599   -18 48 52.67  .25664 1.2640 170.1 22.3  33d  87
2026 08 27 04  22 42 19.848   -18 47 47.08  .25644 1.2638 170.1 22.3  34d  90
2026 08 27 05  22 42 19.096   -18 46 41.36  .25624 1.2636 170.1 22.3  36d  91
2026 08 27 06  22 42 18.341   -18 45 35.51  .25603 1.2634 170.1 22.3  36d  91
2026 08 27 07  22 42 17.584   -18 44 29.53  .25583 1.2632 170.2 22.3  36d  90
2026 08 27 08  22 42 16.825   -18 43 23.41  .25563 1.2630 170.2 22.3  36d  90
2026 08 27 09  22 42 16.063   -18 42 17.15  .25543 1.2628 170.2 22.3  36d  90
2026 08 27 10  22 42 15.300   -18 41 10.77  .25522 1.2626 170.2 22.3  37d  90
2026 08 27 11  22 42 14.534   -18 40 04.25  .25502 1.2624 170.2 22.3  37d  90
2026 08 27 12  22 42 13.766   -18 38 57.59  .25482 1.2622 170.3 22.3  37d  90
2026 08 27 13  22 42 12.996   -18 37 50.80  .25462 1.2620 170.3 22.3  37d  90
2026 08 27 14  22 42 12.223   -18 36 43.87  .25442 1.2618 170.3 22.3  37d  89
2026 08 27 15  22 42 11.449   -18 35 36.81  .25422 1.2616 170.3 22.3  37d  89
2026 08 27 16  22 42 10.673   -18 34 29.62  .25402 1.2614 170.4 22.3  37d  89
2026 08 27 17  22 42 09.894   -18 33 22.28  .25382 1.2612 170.4 22.3  37d  89
2026 08 27 18  22 42 09.113   -18 32 14.82  .25362 1.2610 170.4 22.3  37d  89
2026 08 27 19  22 42 08.330   -18 31 07.21  .25342 1.2608 170.4 22.3  37d  89
2026 08 27 20  22 42 07.545   -18 29 59.47  .25322 1.2606 170.4 22.3  37d  89
2026 08 27 21  22 42 06.758   -18 28 51.60  .25302 1.2604 170.5 22.3  37d  89
2026 08 27 22  22 42 05.969   -18 27 43.59  .25282 1.2603 170.5 22.3  37d  89
2026 08 27 23  22 42 05.177   -18 26 35.44  .25262 1.2601 170.5 22.3  37d  89
2026 08 28 00  22 42 04.384   -18 25 27.15  .25242 1.2599 170.5 22.3  37d  90